Regional Weather Roundup
Issued by NWS

Home | Current Version | Previous Version | Graphics & Text | Print | Product List | Glossary On
Versions: 1 2 3 4 5 6 7 8 9 10 11 12 13 14 15 16 17 18 19 20 21 22 23 24 25 26 27 28 29 30 31 32 33 34 35 36 37 38 39 40 41 42 43 44 45 46 47 48 49 50
000
ASUS45 KCYS 272310
RWRWY

WYOMING REGIONAL WEATHER ROUNDUP
NATIONAL WEATHER SERVICE CHEYENNE WY
500 PM MDT WED AUG 27 2014

NOTE:  "FAIR" INDICATES FEW OR NO CLOUDS BELOW 12,000 FEET
WITH NO SIGNIFICANT WEATHER AND/OR OBSTRUCTIONS TO VISIBILITY.

WYZ001-280000-
YELLOWSTONE NATIONAL PARK

CITY           SKY/WX    TMP DP  RH WIND       PRES   REMARKS
LK YELLOWSTONE   N/A     65  37  35 VRB6      30.32S
W YELLOWSTONE  NOT AVBL

$$
WYZ002>013-054>058-071-098>099-280000-
NORTHERN WYOMING

CITY           SKY/WX    TMP DP  RH WIND       PRES   REMARKS
JACKSON        MOSUNNY   72  36  26 W10       30.22F
CODY           CLOUDY    75  45  33 SE9       30.11F
GREYBULL       CLOUDY    77  48  35 CALM      30.06F
WORLAND        CLOUDY    74  54  49 W7        30.08F
SHERIDAN       PTSUNNY   80  48  32 N5        30.05S
BUFFALO        PTSUNNY   74  50  42 S5        30.11F
GILLETTE       TSTM      66  57  72 S17       30.11R
HULETT         FAIR      68  59  73 MISG      30.11
NEWCASTLE      DRIZZLE   64  57  77 MISG      30.12

$$
WYZ014>020-022>026-101>103-280000-
CENTRAL WYOMING

CITY           SKY/WX    TMP DP  RH WIND       PRES   REMARKS
BIG PINEY      CLOUDY    57  50  77 S9        30.31S
PINEDALE       DRIZZLE   54  52  94 E7        30.32S
DUBOIS         CLOUDY    57  45  62 SE10      30.27S
LANDER         LGT RAIN  60  52  74 S10       30.20F
RIVERTON       CLOUDY    59  52  77 SW13      30.20F
CASPER         CLOUDY    66  52  60 S6        30.14F
DOUGLAS        CLOUDY    63  59  87 W10       30.12F

$$
WYZ021-027>030-104>119-280000-
SOUTHERN WYOMING

CITY           SKY/WX    TMP DP  RH WIND       PRES   REMARKS
EVANSTON       CLOUDY    54  47  77 W8        30.33S
KEMMERER       CLOUDY   N/A N/A N/A CALM      30.33F
FORT BRIDGER   CLOUDY    59  48  67 CALM      30.35S
ROCK SPRINGS   LGT RAIN  53  48  83 NW9       30.31R
DIXON          DRIZZLE   53  49  83 W5        30.31S
RAWLINS        PTSUNNY   59  46  62 W16       30.25S
SARATOGA       FAIR      55  48  76 W12G17    30.28F
LARAMIE        PTSUNNY   59  51  75 W7        30.25S
CHEYENNE       TSTM      54  51  90 W21G36    30.20R VSB 1/2
TORRINGTON     MOSUNNY   68  61  78 N5        30.06S
PINE BLUFFS    CLOUDY    66  55  68 N5        30.11F

$$


USA.gov is the U.S. government's official web portal to all federal, state and local government web resources and services.